Regional Weather Roundup
Issued by NWS

Home | Current Version | Previous Version | Graphics & Text | Print | Product List | Glossary On
Versions: 1 2 3 4 5 6 7 8 9 10 11 12 13 14 15 16 17 18 19 20 21 22 23 24 25 26 27 28 29 30 31 32 33 34 35 36 37 38 39 40 41 42 43 44 45 46 47 48 49 50
849
ASUS43 KLOT 230104
RWRIL

ILLINOIS REGIONAL WEATHER ROUNDUP
NATIONAL WEATHER SERVICE CHICAGO/ROMEOVILLE IL
800 PM CDT MON MAY 22 2017

NOTE: "FAIR" INDICATES FEW OR NO CLOUDS BELOW 12,000 FEET WITH NO
SIGNIFICANT WEATHER AND/OR OBSTRUCTIONS TO VISIBILITY.

* THESE STATIONS ARE NOT UNDER NWS QUALITY CONTROL. THEY ALSO MAY NOT
  REPORT WEATHER SUCH AS PRECIPITATION OR FOG.

ILZ001-002-007-009-015-016-024-230200-
NORTHWEST ILLINOIS

CITY           SKY/WX    TMP DP  RH WIND       PRES   REMARKS
MOLINE         CLOUDY    62  54  74 S13       29.87S
STERLING*      PTCLDY    61  55  81 VRB6      29.89R
$$

ILZ003-004-008-010-011-017-018-230200-
NORTH CENTRAL ILLINOIS

CITY           SKY/WX    TMP DP  RH WIND       PRES   REMARKS
ROCKFORD       CLOUDY    64  53  67 SW12      29.89S
FREEPORT*      CLOUDY    60  55  81 SW10      29.89R
ROCHELLE*      CLOUDY    61  53  75 SW15G22   29.90S
DE KALB*       CLOUDY    61  55  81 SW14G20   29.90S
$$

ILZ005-006-012>014-019>023-230200-
NORTHEAST ILLINOIS

CITY           SKY/WX    TMP DP  RH WIND       PRES   REMARKS
CHICAGO-OHARE  CLOUDY    65  53  65 S18G24    29.90S
CHICAGO-MIDWAY CLOUDY    65  55  70 SW14G23   29.92S
AURORA         MOCLDY    63  55  75 S13       29.91F
LANSING*       CLOUDY    64  53  66 SW15G24   29.95R
WAUKEGAN       PTCLDY    65  54  67 SW16G29   29.87S
DUPAGE AIRPORT PTCLDY    62  56  80 SW17G28   29.90F
WHEELING       PTCLDY    65  54  67 SW14G20   29.90F
MORRIS*        DRIZZLE   62  54  77 SW14G22   29.94R
ROMEOVILLE*    CLOUDY    63  56  78 SW17G23   29.94R
NORTHERLY ISL    N/A     66  51  58 W14         N/A
$$

LMZ740>746-230200-
SOUTHERN LAKE MICHIGAN

STATION/POSITION SKY/WX   TEMP    WIND        PRES    VSBY  WAVE
                          AIR SEA DIR/SP/G                  HT/PER
                          (F)     (DEG/KT/KT) (MB)    (MI)  (FT/S)
SOUTHERN BUOY              51 45  180/ 10/ 12 1012.1          1/ 3
WILMETTE HARBOR            61 54                N/A           2/ 3
HARRISON CRIB              68     240/ 19/ 22   N/A
BURNHAM HARBOR             65     200/ 11/ 20   N/A
CALUMET HARBOR             68     230/ 11/ 16 1013.0R
BURNS HARBOR               68     210/ 13/ 20 1013.9R
MICHIGAN CITY              69     190/ 18/ 23   N/A
MICHIGAN CITY 6N           63 53  200/ 12/ 16   N/A           2/ 3
ST. JOSEPH                 62 55  220/ 12/ 16 1013.4R         2/ 3
$$

ILZ025>027-034>036-040-047-049-050-058-095>099-230200-
WEST-CENTRAL ILLINOIS

CITY           SKY/WX    TMP DP  RH WIND       PRES   REMARKS
QUINCY         LGT RAIN  60  58  92 SW8       29.96R
GALESBURG*     CLOUDY    59  56  88 S12       29.91S
MACOMB*        CLOUDY    59  57  91 SW6       29.95S
$$

ILZ028>032-037-038-041>044-048-051>054-059>061-230200-
CENTRAL ILLINOIS

CITY           SKY/WX    TMP DP  RH WIND       PRES   REMARKS
BLOOMINGTON    LGT RAIN  59  54  83 W10       30.00S
DECATUR        CLOUDY    63  55  75 N13       29.98S
PEORIA         CLOUDY    58  58 100 S10       29.94F
LACON*         CLOUDY    59  56  91 S14G21    29.91S
LINCOLN*       RAIN      60  59  97 CALM      29.99S
SPRINGFIELD    LGT RAIN  61  59  93 N5        29.99S
TAYLORVILLE    NOT AVBL
$$

ILZ033-039-045-046-055>057-062-063-230200-
EAST-CENTRAL ILLINOIS

CITY           SKY/WX    TMP DP  RH WIND       PRES   REMARKS
CHAMPAIGN      CLOUDY    67  47  48 SW6       29.97F
MATTOON        CLOUDY    63  51  65 CALM      29.96F
$$

ILZ079-100>102-230200-
SOUTHWEST ILLINOIS

CITY           SKY/WX    TMP DP  RH WIND       PRES   REMARKS
ALTON          MOCLDY    68  50  52 S6        29.96S
BELLEVILLE     CLOUDY    68  50  52 SE3       29.96S
CAHOKIA*       CLOUDY    71  47  42 S5        29.94S
SPARTA*        CLOUDY    67  53  60 CALM      29.97S
$$

ILZ064>066-069>071-074>076-080>082-084>086-088>090-092>094-230200-
SOUTH-CENTRAL ILLINOIS

CITY           SKY/WX    TMP DP  RH WIND       PRES   REMARKS
CARBONDALE     CLOUDY    67  54  63 SW5       29.96S
CAIRO*         MOCLDY    71  49  46 NE3       29.96S
EFFINGHAM*     PTCLDY    65  56  72 CALM      29.98S
MARION         MOCLDY    68  55  64 CALM      29.98S
MT. VERNON       N/A     66  56  70 CALM      29.97S
CENTRALIA*     CLOUDY    70  58  66 CALM      29.96F
SALEM*         PTCLDY    67  53  59 CALM      29.97S
$$

ILZ067-068-072-073-078-083-087-091-230200-
SOUTHEAST ILLINOIS

CITY           SKY/WX    TMP DP  RH WIND       PRES   REMARKS
LAWRENCEVILLE  CLOUDY    70  44  39 S6        29.98S
FLORA*         CLOUDY    71  56  59 CALM      29.97S
FAIRFIELD*     CLOUDY    66  53  62 CALM      29.96S
HARRISBURG*    MOCLDY    69  52  54 S5        29.98R
ROBINSON*      PTCLDY    69  46  43 CALM      29.98F
CARMI*         CLOUDY    68  49  50 SE5       29.97S
$$

ABBREVIATIONS USED IN REMARKS
   TC - TEMPERATURE IN CELSIUS
  WCI - WIND CHILL INDEX
   HX - HEAT INDEX
  VSB - VISIBILITY
$$





USA.gov is the U.S. government's official web portal to all federal, state and local government web resources and services.